Location: Unspecified
(0.0000°N, 0.0000°E)
Time: 15:22:50
(UTC+01:00)

Tiangong 2 - Visible Passes

Search period start: 19 November 2018 00:00
Search period end: 29 November 2018 00:00
Orbit: 382 x 393 km, 42.8° (Epoch: 19 November)

Date Brightness Start Highest point End Pass type
(mag) Time Alt. Az. Time Alt. Az. Time Alt. Az.
20 Nov 2.9 05:21:05 10° SSW 05:23:59 32° SE 05:26:51 10° ENE visible
21 Nov 2.2 06:00:06 14° W 06:02:05 25° NW 06:04:46 10° NNE visible
22 Nov 4.0 05:06:30 11° NE 05:06:30 11° NE 05:06:42 10° NE visible
